{"data":{"norad_id":56710,"intl_designator":"2023-068A","name":"ONEWEB-0561","alt_names":[],"object_type":"PAYLOAD","status":"ACTIVE","operator":null,"country":"UK","launch_date":"2023-05-20","launch_site_code":"AFWTR","launch_vehicle":null,"mission":null,"orbit_class":"UNKNOWN","rcs_meters":null,"size_class":null,"mass_kg":null,"dimensions":null,"purposes":["comms"],"wikipedia_slug":null,"has_3d_model":false,"image_url":null,"decayed_at":null,"tle_current":{"epoch":"2026-09-19T23:15:57.043008Z","epoch_age_seconds":64216,"freshness":"FRESH","line1":"1 56710U 23068A   26262.96941022  .00000093  00000+0  19702-3 0  9992","line2":"2 56710  87.9142 255.5347 0002239  85.0747 275.0642 13.20770415162016","mean_motion":13.20770415,"eccentricity":0.0002239,"inclination_deg":87.9142,"raan_deg":255.5347,"arg_perigee_deg":85.0747,"mean_anomaly_deg":275.0642,"bstar":0.00019702,"rev_number":16201,"period_min":109.02727556931,"perigee_km":1180.0860419917,"apogee_km":1183.4713722454,"semimajor_km":7559.9157071186,"source":"CELESTRAK","updated_at":"2026-09-20T09:00:44.794263Z"}}}